| time (UTC) | temp F | wind direction | speed MPH | gust MPH | rain 1hr in | rain 24hr in | rain mn in | humidity % | barometer mb |
| 20260507163036 | 81 | 271 | 1.0 | 6.0 | 0.00 | 0.00 | 0.00 | 27 | 998.5 |
| 20260507161531 | 79 | 313 | 1.0 | 3.0 | 0.00 | 0.00 | 0.00 | 27 | 998.7 |
| 20260507160033 | 77 | 232 | 4.0 | 6.0 | 0.00 | 0.00 | 0.00 | 31 | 998.9 |
| 20260507154528 | 77 | 290 | 0.0 | 2.0 | 0.00 | 0.00 | 0.00 | 27 | 999.0 |
| 20260507153028 | 76 | 129 | 0.0 | 2.0 | 0.00 | 0.00 | 0.00 | 29 | 999.2 |
| 20260507151525 | 75 | 130 | 1.0 | 4.0 | 0.00 | 0.00 | 0.00 | 30 | 999.4 |
| 20260507150025 | 74 | 144 | 0.0 | 2.0 | 0.00 | 0.00 | 0.00 | 32 | 999.4 |
| 20260507144527 | 74 | 147 | 0.0 | 1.0 | 0.00 | 0.00 | 0.00 | 32 | 999.4 |
| 20260507143024 | 72 | 294 | 0.0 | 1.0 | 0.00 | 0.00 | 0.00 | 34 | 999.4 |
| 20260507141523 | 72 | 284 | 0.0 | 0.0 | 0.00 | 0.00 | 0.00 | 34 | 999.4 |
| 20260507140021 | 70 | 43 | 0.0 | 1.0 | 0.00 | 0.00 | 0.00 | 35 | 999.4 |
| 20260507134522 | 68 | 33 | 0.0 | 1.0 | 0.00 | 0.00 | 0.00 | 35 | 999.2 |
| 20260507133018 | 66 | 17 | 0.0 | 1.0 | 0.00 | 0.00 | 0.00 | 37 | 999.2 |
| 20260507131526 | 66 | 17 | 0.0 | 1.0 | 0.00 | 0.00 | 0.00 | 37 | 999.0 |
| 20260507130019 | 64 | 19 | 0.0 | 1.0 | 0.00 | 0.00 | 0.00 | 39 | 998.9 |
| 20260507124518 | 63 | 307 | 0.0 | 0.0 | 0.00 | 0.00 | 0.00 | 41 | 998.7 |
| 20260507123012 | 63 | 306 | 0.0 | 2.0 | 0.00 | 0.00 | 0.00 | 41 | 998.7 |
| 20260507121509 | 64 | 98 | 0.0 | 0.0 | 0.00 | 0.00 | 0.00 | 39 | 998.6 |
| 20260507120025 | 66 | 98 | 0.0 | 1.0 | 0.00 | 0.00 | 0.00 | 36 | 998.5 |
| 20260507114505 | 66 | 94 | 2.0 | 3.0 | 0.00 | 0.00 | 0.00 | 38 | 998.4 |
| 20260507113023 | 65 | 346 | 0.0 | 1.0 | 0.00 | 0.00 | 0.00 | 41 | 998.4 |
| 20260507111506 | 65 | 290 | 0.0 | 1.0 | 0.00 | 0.00 | 0.00 | 41 | 998.4 |
| 20260507110005 | 66 | 308 | 1.0 | 4.0 | 0.00 | 0.00 | 0.00 | 39 | 998.5 |
| 20260507104600 | 67 | 136 | 0.0 | 1.0 | 0.00 | 0.00 | 0.00 | 37 | 998.4 |
| 20260507103053 | 68 | 136 | 0.0 | 1.0 | 0.00 | 0.00 | 0.00 | 36 | 998.4 |
| 20260507101558 | 69 | 130 | 0.0 | 2.0 | 0.00 | 0.00 | 0.00 | 34 | 998.3 |
| 20260507100051 | 70 | 140 | 0.0 | 2.0 | 0.00 | 0.00 | 0.00 | 36 | 998.3 |
| 20260507094556 | 70 | 104 | 3.0 | 6.0 | 0.00 | 0.00 | 0.00 | 35 | 998.3 |
| 20260507093049 | 69 | 156 | 0.0 | 2.0 | 0.00 | 0.00 | 0.00 | 37 | 998.2 |
| 20260507091547 | 70 | 105 | 0.0 | 1.0 | 0.00 | 0.00 | 0.00 | 36 | 998.3 |
| 20260507090045 | 71 | 215 | 0.0 | 2.0 | 0.00 | 0.00 | 0.00 | 34 | 998.3 |
| 20260507084539 | 73 | 127 | 2.0 | 6.0 | 0.00 | 0.00 | 0.00 | 32 | 998.3 |
| 20260507083035 | 75 | 105 | 0.0 | 4.0 | 0.00 | 0.00 | 0.00 | 29 | 998.3 |
| 20260507081542 | 75 | 95 | 0.0 | 1.0 | 0.00 | 0.00 | 0.00 | 28 | 998.2 |
| 20260507080036 | 76 | 115 | 0.0 | 2.0 | 0.00 | 0.00 | 0.00 | 28 | 998.1 |
| 20260507074533 | 76 | 101 | 1.0 | 5.0 | 0.00 | 0.00 | 0.00 | 28 | 998.1 |
| 20260507073029 | 76 | 103 | 1.0 | 6.0 | 0.00 | 0.00 | 0.00 | 29 | 998.0 |
| 20260507071533 | 76 | 105 | 2.0 | 5.0 | 0.00 | 0.00 | 0.00 | 29 | 997.8 |
| 20260507070026 | 76 | 110 | 2.0 | 4.0 | 0.00 | 0.00 | 0.00 | 29 | 997.8 |
| 20260507064527 | 77 | 161 | 2.0 | 6.0 | 0.00 | 0.00 | 0.00 | 29 | 997.7 |
| 20260507063025 | 77 | 108 | 2.0 | 5.0 | 0.00 | 0.00 | 0.00 | 29 | 997.6 |
| 20260507061532 | 77 | 129 | 0.0 | 2.0 | 0.00 | 0.00 | 0.00 | 28 | 997.5 |
| 20260507060030 | 78 | 180 | 1.0 | 5.0 | 0.00 | 0.00 | 0.00 | 27 | 997.3 |
| 20260507054523 | 80 | 215 | 4.0 | 8.0 | 0.00 | 0.00 | 0.00 | 25 | 997.1 |
| 20260507053029 | 80 | 173 | 2.0 | 7.0 | 0.00 | 0.00 | 0.00 | 26 | 997.1 |
| 20260507051523 | 80 | 175 | 4.0 | 9.0 | 0.00 | 0.00 | 0.00 | 27 | 996.9 |
| 20260507050022 | 82 | 232 | 6.0 | 12.0 | 0.00 | 0.00 | 0.00 | 25 | 996.7 |
| 20260507044523 | 80 | 212 | 4.0 | 8.0 | 0.00 | 0.00 | 0.00 | 27 | 996.5 |
| 20260507043021 | 80 | 204 | 3.0 | 7.0 | 0.00 | 0.00 | 0.00 | 26 | 996.5 |
| 20260507041519 | 80 | 140 | 1.0 | 3.0 | 0.00 | 0.00 | 0.00 | 26 | 996.5 |
| 20260507040019 | 80 | 158 | 0.0 | 2.0 | 0.00 | 0.00 | 0.00 | 27 | 996.2 |
| 20260507034524 | 81 | 136 | 0.0 | 1.0 | 0.00 | 0.00 | 0.00 | 27 | 996.1 |
| 20260507033018 | 81 | 136 | 0.0 | 1.0 | 0.00 | 0.00 | 0.00 | 27 | 996.0 |
| 20260507031518 | 81 | 157 | 0.0 | 0.0 | 0.00 | 0.00 | 0.00 | 28 | 995.8 |
| 20260507030019 | 83 | 159 | 0.0 | 1.0 | 0.00 | 0.00 | 0.00 | 26 | 995.7 |
| 20260507024517 | 84 | 160 | 0.0 | 2.0 | 0.00 | 0.00 | 0.00 | 25 | 995.5 |
| 20260507023015 | 85 | 206 | 0.0 | 4.0 | 0.00 | 0.00 | 0.00 | 24 | 995.5 |
| 20260507021515 | 87 | 199 | 1.0 | 5.0 | 0.00 | 0.00 | 0.00 | 23 | 995.5 |
| 20260507020015 | 90 | 218 | 3.0 | 6.0 | 0.00 | 0.00 | 0.00 | 21 | 995.5 |
| 20260507013012 | 90 | 232 | 5.0 | 8.0 | 0.00 | 0.00 | 0.00 | 19 | 995.5 |
| 20260507011508 | 90 | 231 | 3.0 | 7.0 | 0.00 | 0.00 | 0.00 | 20 | 995.6 |
| 20260507010024 | 90 | 256 | 2.0 | 7.0 | 0.00 | 0.00 | 0.00 | 18 | 995.6 |
| 20260507004506 | 90 | 269 | 3.0 | 9.0 | 0.00 | 0.00 | 0.00 | 20 | 995.6 |
| 20260507003005 | 90 | 263 | 3.0 | 8.0 | 0.00 | 0.00 | 0.00 | 20 | 995.7 |
| 20260507001505 | 89 | 27 | 2.0 | 7.0 | 0.00 | 0.00 | 0.00 | 18 | 995.7 |
| 20260507000003 | 90 | 319 | 5.0 | 16.0 | 0.00 | 0.00 | 0.00 | 19 | 995.7 |
| 20260506234608 | 89 | 89 | 0.0 | 9.0 | 0.00 | 0.00 | 0.00 | 19 | 995.7 |
| 20260506233106 | 90 | 307 | 3.0 | 9.0 | 0.00 | 0.00 | 0.00 | 20 | 996.0 |
| 20260506231556 | 89 | 263 | 5.0 | 9.0 | 0.00 | 0.00 | 0.00 | 20 | 996.3 |
| 20260506230054 | 89 | 336 | 0.0 | 9.0 | 0.00 | 0.00 | 0.00 | 20 | 996.4 |
| 20260506224605 | 88 | 330 | 1.0 | 14.0 | 0.00 | 0.00 | 0.00 | 21 | 996.6 |
| 20260506223054 | 88 | 285 | 4.0 | 9.0 | 0.00 | 0.00 | 0.00 | 21 | 996.9 |
| 20260506221545 | 89 | 136 | 2.0 | 7.0 | 0.00 | 0.00 | 0.00 | 21 | 997.2 |
| 20260506220054 | 87 | 117 | 4.0 | 7.0 | 0.00 | 0.00 | 0.00 | 21 | 997.5 |
| 20260506214542 | 87 | 238 | 2.0 | 8.0 | 0.00 | 0.00 | 0.00 | 21 | 997.8 |
| 20260506213040 | 86 | 246 | 5.0 | 8.0 | 0.00 | 0.00 | 0.00 | 22 | 998.1 |
| 20260506211547 | 85 | 241 | 3.0 | 10.0 | 0.00 | 0.00 | 0.00 | 23 | 998.4 |
| 20260506210038 | 84 | 169 | 4.0 | 9.0 | 0.00 | 0.00 | 0.00 | 23 | 998.7 |
| 20260506204539 | 85 | 265 | 6.0 | 11.0 | 0.00 | 0.00 | 0.00 | 24 | 998.8 |
| 20260506203036 | 84 | 282 | 3.0 | 10.0 | 0.00 | 0.00 | 0.00 | 23 | 999.0 |
| 20260506201536 | 85 | 232 | 3.0 | 9.0 | 0.00 | 0.00 | 0.00 | 23 | 999.2 |
| 20260506200035 | 83 | 257 | 3.0 | 7.0 | 0.00 | 0.00 | 0.00 | 25 | 999.3 |
| 20260506194537 | 83 | 240 | 4.0 | 12.0 | 0.00 | 0.00 | 0.00 | 25 | 999.6 |
| 20260506193031 | 82 | 340 | 0.0 | 10.0 | 0.00 | 0.00 | 0.00 | 26 | 999.8 |
| 20260506191529 | 82 | 132 | 1.0 | 8.0 | 0.00 | 0.00 | 0.00 | 26 | 999.9 |
| 20260506190027 | 82 | 200 | 3.0 | 9.0 | 0.00 | 0.00 | 0.00 | 27 | 1000.1 |
| 20260506184529 | 81 | 69 | 2.0 | 8.0 | 0.00 | 0.00 | 0.00 | 27 | 1000.4 |
| 20260506183023 | 80 | 199 | 2.0 | 6.0 | 0.00 | 0.00 | 0.00 | 27 | 1000.6 |
| 20260506181521 | 79 | 129 | 4.0 | 9.0 | 0.00 | 0.00 | 0.00 | 28 | 1000.7 |
| 20260506180018 | 78 | 108 | 2.0 | 8.0 | 0.00 | 0.00 | 0.00 | 30 | 1000.8 |
| 20260506174517 | 77 | 250 | 2.0 | 7.0 | 0.00 | 0.00 | 0.00 | 30 | 1000.9 |
| 20260506171602 | 76 | 182 | 0.0 | 6.0 | 0.00 | 0.00 | 0.00 | 31 | 1000.9 |
| 20260506170104 | 76 | 198 | 3.0 | 7.0 | 0.00 | 0.00 | 0.00 | 31 | 1000.9 |
| 20260506164552 | 75 | 138 | 2.0 | 6.0 | 0.00 | 0.00 | 0.00 | 32 | 1001.1 |